Wheaton NDB, MN

1:47 PM CDT on June 28, 2017 (GMT -0500)
Wheaton Municipal

Weather History for KETH - August, 2013

Change the Weather History Date:

Tuesday, August 13, 2013

  Actual Average Record
Temperature  
Mean Temperature 62 °F -  
Max Temperature 77 °F 85 °F 100 °F (1984)
Min Temperature 48 °F 58 °F 42 °F (1997)
Degree Days  
Heating Degree Days 2    
Growing Degree Days 12 (Base 50)    
Moisture  
Dew Point 53 °F    
Average Humidity 71    
Maximum Humidity 100    
Minimum Humidity 41    
Precipitation  
Precipitation 0.00 in - - ()
Sea Level Pressure  
Sea Level Pressure 30.20 in    
Wind  
Wind Speed 1 mph (North)    
Max Wind Speed 6 mph    
Max Gust Speed -    
Visibility 10 miles    
Events      
Averages and records for this station are not official NWS values.
T = Trace of Precipitation, MM = Missing Value Source: NWS Daily Summary

Daily Weather History Graph

Daily Weather History Graph

Search for Another Location

Airport or City:

Trip Planner

Search our weather history database for the weather conditions in past years. The results will help you decide how hot, cold, wet, or windy it might be!

Date:

Astronomy

Aug. 13, 2013 Rise Set
Actual Time 6:24 AM CDT 8:36 PM CDT
Civil Twilight 5:51 AM CDT 9:09 PM CDT
Nautical Twilight 5:10 AM CDT 9:49 PM CDT
Astronomical Twilight 4:25 AM CDT 10:34 PM CDT
Moon 1:45 PM CDT (8/13) 11:47 PM CDT (8/13)
Length of Visible Light 15h 18m
Length of Day
14h 12m
Waxing Crescent, 42% of the Moon is Illuminated
Aug 13
Waxing Crescent
Aug 14
First Quarter
Aug 20
Full
Aug 28
Last Quarter
Sep 5
New

Hourly Weather History & Observations

Time (CDT) Temp. Dew Point Humidity Pressure Visibility Wind Dir Wind Speed Gust Speed Precip Events Conditions
12:15 AM 57.2 °F 53.6 °F 88% 30.16 in 10.0 mi NW 3.5 mph - N/A   Clear
12:35 AM 57.2 °F 53.6 °F 88% 30.16 in 10.0 mi NNW 3.5 mph - N/A   Clear
12:55 AM 57.2 °F 53.6 °F 88% 30.16 in 10.0 mi Calm Calm - N/A   Clear
1:15 AM 57.2 °F 53.6 °F 88% 30.17 in 10.0 mi Calm Calm - N/A   Clear
1:34 AM 53.6 °F 51.8 °F 94% 30.18 in 10.0 mi Calm Calm - N/A   Clear
1:54 AM 55.4 °F 51.8 °F 88% 30.18 in 10.0 mi Calm Calm - N/A   Clear
2:15 AM 53.6 °F 51.8 °F 94% 30.18 in 10.0 mi Calm Calm - N/A   Clear
2:35 AM 53.6 °F 51.8 °F 94% 30.18 in 10.0 mi Calm Calm - N/A   Clear
2:55 AM 53.6 °F 51.8 °F 94% 30.18 in 10.0 mi Calm Calm - N/A   Clear
3:15 AM 51.8 °F 50.0 °F 94% 30.18 in 10.0 mi Calm Calm - N/A   Clear
3:35 AM 53.6 °F 51.8 °F 94% 30.18 in 10.0 mi Calm Calm - N/A   Clear
3:54 AM 51.8 °F 50.0 °F 94% 30.19 in 10.0 mi Calm Calm - N/A   Clear
4:15 AM 51.8 °F 50.0 °F 94% 30.19 in 10.0 mi Calm Calm - N/A   Clear
4:35 AM 51.8 °F 50.0 °F 94% 30.18 in 10.0 mi Calm Calm - N/A   Clear
4:54 AM 50.0 °F 48.2 °F 94% 30.19 in 10.0 mi Calm Calm - N/A   Clear
5:15 AM 50.0 °F 48.2 °F 94% 30.19 in 10.0 mi Calm Calm - N/A   Clear
5:34 AM 48.2 °F 48.2 °F 100% 30.19 in 10.0 mi Calm Calm - N/A   Clear
5:55 AM 50.0 °F 48.2 °F 94% 30.20 in 10.0 mi Calm Calm - N/A   Clear
6:15 AM 51.8 °F 50.0 °F 94% 30.20 in 10.0 mi Calm Calm - N/A   Clear
6:35 AM 48.2 °F 48.2 °F 100% 30.20 in 7.0 mi Calm Calm - N/A   Clear
6:54 AM 48.2 °F 48.2 °F 100% 30.20 in 7.0 mi Calm Calm - N/A   Clear
7:15 AM 51.8 °F 50.0 °F 94% 30.21 in 10.0 mi Calm Calm - N/A   Clear
7:35 AM 53.6 °F 51.8 °F 94% 30.22 in 10.0 mi Calm Calm - N/A   Clear
7:54 AM 55.4 °F 53.6 °F 94% 30.23 in 10.0 mi Calm Calm - N/A   Clear
8:14 AM 57.2 °F 53.6 °F 88% 30.24 in 10.0 mi Calm Calm - N/A   Clear
8:34 AM 57.2 °F 53.6 °F 88% 30.24 in 10.0 mi Calm Calm - N/A   Clear
8:54 AM 60.8 °F 55.4 °F 82% 30.24 in 10.0 mi Calm Calm - N/A   Clear
9:14 AM 62.6 °F 55.4 °F 77% 30.25 in 10.0 mi Calm Calm - N/A   Clear
9:34 AM 64.4 °F 55.4 °F 73% 30.25 in 10.0 mi NW 3.5 mph - N/A   Clear
9:54 AM 66.2 °F 55.4 °F 68% 30.25 in 10.0 mi Calm Calm - N/A   Clear
10:15 AM 66.2 °F 55.4 °F 68% 30.25 in 10.0 mi NNW 3.5 mph - N/A   Clear
10:34 AM 68.0 °F 55.4 °F 64% 30.25 in 10.0 mi Calm Calm - N/A   Clear
10:54 AM 69.8 °F 53.6 °F 56% 30.25 in 10.0 mi West 3.5 mph - N/A   Clear
11:14 AM 71.6 °F 55.4 °F 57% 30.25 in 10.0 mi Calm Calm - N/A   Clear
11:35 AM 71.6 °F 53.6 °F 53% 30.25 in 10.0 mi WNW 5.8 mph - N/A   Clear
11:55 AM 71.6 °F 53.6 °F 53% 30.24 in 10.0 mi North 3.5 mph - N/A   Clear
12:14 PM 71.6 °F 51.8 °F 50% 30.24 in 10.0 mi ENE 3.5 mph - N/A   Clear
12:35 PM 73.4 °F 51.8 °F 47% 30.24 in 7.0 mi Calm Calm - N/A   Clear
12:54 PM 73.4 °F 51.8 °F 47% 30.23 in 10.0 mi Calm Calm - N/A   Clear
1:16 PM 73.4 °F 51.8 °F 47% 30.23 in 10.0 mi WNW 5.8 mph - N/A   Clear
1:34 PM 73.4 °F 51.8 °F 47% 30.24 in 10.0 mi NNE 3.5 mph - N/A   Clear
1:55 PM 75.2 °F 51.8 °F 44% 30.23 in 10.0 mi NNW 4.6 mph - N/A   Clear
2:14 PM 75.2 °F 51.8 °F 44% 30.23 in 10.0 mi NNW 3.5 mph - N/A   Clear
2:35 PM 75.2 °F 51.8 °F 44% 30.22 in 10.0 mi ENE 4.6 mph - N/A   Clear
2:54 PM 75.2 °F 51.8 °F 44% 30.21 in 10.0 mi Calm Calm - N/A   Scattered Clouds
3:15 PM 75.2 °F 51.8 °F 44% 30.21 in 10.0 mi Calm Calm - N/A   Scattered Clouds
3:34 PM 75.2 °F 51.8 °F 44% 30.20 in 10.0 mi East 3.5 mph - N/A   Clear
3:55 PM 75.2 °F 50.0 °F 41% 30.20 in 10.0 mi Calm Calm - N/A   Clear
4:15 PM 77.0 °F 51.8 °F 41% 30.20 in 10.0 mi WNW 5.8 mph - N/A   Clear
4:35 PM 75.2 °F 51.8 °F 44% 30.19 in 10.0 mi Calm Calm - N/A   Clear
4:55 PM 77.0 °F 51.8 °F 41% 30.19 in 10.0 mi NW 3.5 mph - N/A   Clear
5:14 PM 75.2 °F 51.8 °F 44% 30.18 in 10.0 mi NE 3.5 mph - N/A   Scattered Clouds
5:34 PM 75.2 °F 51.8 °F 44% 30.18 in 10.0 mi Calm Calm - N/A   Clear
5:54 PM 75.2 °F 51.8 °F 44% 30.18 in 10.0 mi East 3.5 mph - N/A   Clear
6:14 PM 75.2 °F 51.8 °F 44% 30.18 in 10.0 mi Calm Calm - N/A   Clear
6:34 PM 75.2 °F 51.8 °F 44% 30.17 in 10.0 mi Calm Calm - N/A   Clear
6:55 PM 75.2 °F 53.6 °F 47% 30.17 in 7.0 mi Calm Calm - N/A   Clear
7:14 PM 73.4 °F 53.6 °F 50% 30.17 in 7.0 mi Calm Calm - N/A   Clear
7:34 PM 73.4 °F 57.2 °F 57% 30.17 in 10.0 mi Calm Calm - N/A   Clear
7:54 PM 71.6 °F 55.4 °F 57% 30.17 in 10.0 mi Calm Calm - N/A   Clear
8:14 PM 71.6 °F 57.2 °F 60% 30.17 in 10.0 mi Calm Calm - N/A   Clear
8:34 PM 68.0 °F 57.2 °F 68% 30.18 in 10.0 mi Calm Calm - N/A   Clear
8:54 PM 66.2 °F 55.4 °F 68% 30.19 in 10.0 mi Calm Calm - N/A   Clear
9:14 PM 62.6 °F 57.2 °F 82% 30.18 in 10.0 mi Calm Calm - N/A   Clear
9:34 PM 60.8 °F 55.4 °F 82% 30.18 in 10.0 mi SE 3.5 mph - N/A   Clear
9:54 PM 64.4 °F 53.6 °F 68% 30.19 in 10.0 mi Calm Calm - N/A   Clear
10:15 PM 59.0 °F 53.6 °F 82% 30.19 in 10.0 mi ESE 3.5 mph - N/A   Clear
10:35 PM 59.0 °F 53.6 °F 82% 30.19 in 10.0 mi Calm Calm - N/A   Clear
10:55 PM 60.8 °F 53.6 °F 77% 30.20 in 10.0 mi South 3.5 mph - N/A   Clear
11:14 PM 57.2 °F 53.6 °F 88% 30.20 in 10.0 mi Calm Calm - N/A   Clear
11:35 PM 57.2 °F 53.6 °F 88% 30.20 in 10.0 mi Calm Calm - N/A   Clear
11:55 PM 60.8 °F 51.8 °F 72% 30.20 in 10.0 mi SSW 3.5 mph - N/A   Scattered Clouds